Fitchburg, MA

3:31 AM EDT on April 26, 2017 (GMT -0400)
Fitchburg Municipal

Weather History for KFIT - February, 2014

Change the Weather History Date:

Thursday, February 13, 2014

  Actual Average (KORH) Record (KORH)
Temperature  
Mean Temperature 24 °F -  
Max Temperature 34 °F 32 °F 59 °F (1900)
Min Temperature 14 °F 15 °F -12 °F (1967)
Degree Days  
Heating Degree Days 41    
Moisture  
Dew Point 21 °F    
Average Humidity 83    
Maximum Humidity 93    
Minimum Humidity 54    
Precipitation  
Precipitation 0.68 in - - ()
Sea Level Pressure  
Sea Level Pressure 29.80 in    
Wind  
Wind Speed 6 mph (North)    
Max Wind Speed 16 mph    
Max Gust Speed 29 mph    
Visibility 2 miles    
Events Fog , Rain , Snow    
Averages and records for this station are not official NWS values.
T = Trace of Precipitation, MM = Missing Value Source: NWS Daily Summary

Daily Weather History Graph

Daily Weather History Graph

Search for Another Location

Airport or City:

Trip Planner

Search our weather history database for the weather conditions in past years. The results will help you decide how hot, cold, wet, or windy it might be!

Date:

Astronomy

Feb. 13, 2014 Rise Set
Actual Time 6:46 AM EST 5:16 PM EST
Civil Twilight 6:17 AM EST 5:45 PM EST
Nautical Twilight 5:44 AM EST 6:18 PM EST
Astronomical Twilight 5:11 AM EST 6:51 PM EST
Moon 4:22 PM EST (2/13) 5:38 AM EST (2/13)
Length of Visible Light 11h 27m
Length of Day
10h 29m
Waxing Gibbous, 98% of the Moon is Illuminated
Feb 13
Waxing Gibbous
Feb 14
Full
Feb 22
Last Quarter
Mar 1
New
Mar 8
First Quarter

Hourly Weather History & Observations

Time (EST) Temp. Windchill Dew Point Humidity Pressure Visibility Wind Dir Wind Speed Gust Speed Precip Events Conditions
12:52 AM 14.0 °F - 3.0 °F 62% 30.39 in 9.0 mi Calm Calm - N/A   Overcast
1:52 AM 16.0 °F 10.4 °F 5.0 °F 62% 30.38 in 9.0 mi NW 3.5 mph - N/A   Overcast
2:38 AM 17.1 °F - 5.0 °F 59% 30.34 in 10.0 mi Calm Calm - N/A   Overcast
2:52 AM 17.1 °F - 5.0 °F 59% 30.37 in 10.0 mi Calm Calm - N/A   Overcast
3:52 AM 18.0 °F 12.7 °F 5.0 °F 57% 30.34 in 10.0 mi NW 3.5 mph - N/A   Overcast
4:52 AM 19.0 °F 13.9 °F 5.0 °F 54% 30.32 in 10.0 mi WNW 3.5 mph - N/A   Overcast
5:52 AM 19.9 °F 14.9 °F 6.1 °F 55% 30.30 in 10.0 mi WNW 3.5 mph - N/A   Overcast
6:28 AM 19.0 °F 12.3 °F 10.0 °F 68% 30.27 in 2.0 mi WNW 4.6 mph - 0.00 in Snow Light Snow
6:37 AM 19.0 °F 12.3 °F 12.0 °F 74% 30.26 in 1.5 mi WNW 4.6 mph - 0.00 in Snow Light Snow
6:52 AM 19.0 °F 12.3 °F 14.0 °F 81% 30.27 in 1.8 mi WNW 4.6 mph - 0.00 in Snow Light Snow
7:11 AM 19.0 °F 13.9 °F 15.1 °F 85% 30.24 in 1.0 mi WNW 3.5 mph - 0.00 in Snow Light Snow
7:19 AM 19.0 °F - 16.0 °F 88% 30.23 in 0.8 mi Calm Calm - 0.00 in Snow Light Snow
7:30 AM 19.9 °F - 16.0 °F 85% 30.23 in 1.0 mi Calm Calm - 0.00 in Snow Light Snow
7:40 AM 19.9 °F - 16.0 °F 85% 30.22 in 0.8 mi Calm Calm - 0.00 in Snow Light Snow
7:52 AM 19.9 °F - 17.1 °F 89% 30.24 in 1.0 mi Calm Calm - 0.00 in Snow Light Snow
8:07 AM 21.0 °F 16.2 °F 17.1 °F 85% 30.21 in 1.2 mi Variable 3.5 mph - 0.01 in Snow Light Snow
8:18 AM 21.0 °F 16.2 °F 16.0 °F 81% 30.20 in 1.5 mi North 3.5 mph - 0.01 in Snow Light Snow
8:47 AM 21.2 °F 12.6 °F 17.6 °F 86% 30.18 in 2.0 mi North 6.9 mph - 0.01 in Snow Light Snow
8:52 AM 21.9 °F 15.7 °F 17.1 °F 82% 30.20 in 1.5 mi Variable 4.6 mph - 0.01 in Snow Light Snow
9:03 AM 21.9 °F 14.5 °F 17.1 °F 82% 30.17 in 1.0 mi North 5.8 mph - 0.00 in Snow Light Snow
9:14 AM 21.9 °F 15.7 °F 17.1 °F 82% 30.16 in 1.2 mi North 4.6 mph - 0.00 in Snow Light Snow
9:29 AM 21.9 °F 14.5 °F 17.1 °F 82% 30.15 in 1.0 mi North 5.8 mph - 0.01 in Snow Light Snow
9:38 AM 21.9 °F 14.5 °F 18.0 °F 85% 30.14 in 0.8 mi North 5.8 mph - 0.01 in Snow Light Snow
9:52 AM 21.9 °F 17.2 °F 18.0 °F 85% 30.15 in 0.5 mi North 3.5 mph - 0.02 in Fog , Snow Snow
10:52 AM 23.0 °F 15.8 °F 19.0 °F 85% 30.09 in 0.5 mi Variable 5.8 mph - 0.05 in Fog , Snow Snow
11:52 AM 24.1 °F - 19.9 °F 84% 30.03 in 0.5 mi North - - 0.04 in Fog , Snow Snow
12:41 PM 24.1 °F 13.1 °F 21.0 °F 88% 29.92 in 0.2 mi North 11.5 mph 16.1 mph 0.05 in Fog , Snow Snow
12:52 PM 24.1 °F 14.4 °F 21.0 °F 88% 29.91 in 0.2 mi North 9.2 mph - 0.07 in Fog , Snow Snow
1:34 PM 25.0 °F 13.1 °F 21.9 °F 88% 29.84 in 0.2 mi North 13.8 mph 18.4 mph 0.06 in Fog , Snow Heavy Snow
1:48 PM 26.6 °F 15.7 °F 23.0 °F 86% 29.82 in 0.2 mi North 12.7 mph - 0.10 in Fog , Snow Heavy Snow
1:52 PM 26.1 °F 16.8 °F 23.0 °F 88% 29.83 in 0.2 mi North 9.2 mph - 0.11 in Fog , Snow Heavy Snow
2:37 PM 27.0 °F 18.0 °F 24.1 °F 89% 29.74 in 0.2 mi NNE 9.2 mph - 0.08 in Fog , Snow Snow
2:49 PM 26.6 °F 16.8 °F 24.8 °F 93% 29.72 in 0.2 mi North 10.4 mph 21.9 mph 0.10 in Fog , Snow Snow
2:52 PM 27.0 °F 16.7 °F 24.1 °F 89% 29.74 in 0.2 mi North 11.5 mph 21.9 mph 0.11 in Fog , Snow Snow
3:29 PM 28.9 °F 19.8 °F 26.1 °F 89% 29.68 in 0.2 mi NNE 10.4 mph 18.4 mph 0.05 in Fog , Snow Light Snow
3:43 PM 28.9 °F 20.4 °F 26.1 °F 89% 29.66 in 1.0 mi NNE 9.2 mph 21.9 mph 0.06 in Snow Light Snow
3:52 PM 30.0 °F 19.5 °F 26.1 °F 85% 29.67 in 0.8 mi North 13.8 mph 20.7 mph 0.06 in Snow Light Snow
3:59 PM 30.0 °F 18.7 °F 26.1 °F 85% 29.64 in 0.8 mi North 16.1 mph 23.0 mph 0.01 in Snow Light Snow
4:24 PM 30.0 °F 21.1 °F 27.0 °F 88% 29.60 in 1.0 mi North 10.4 mph 23.0 mph 0.02 in Snow Light Snow
4:27 PM 30.0 °F 19.5 °F 27.0 °F 88% 29.60 in 1.2 mi NNE 13.8 mph 23.0 mph 0.02 in Snow Light Snow
4:52 PM 30.9 °F 19.8 °F 27.0 °F 85% 29.58 in 1.5 mi North 16.1 mph 27.6 mph 0.02 in Snow Light Snow
5:33 PM 32.0 °F 22.5 °F 28.0 °F 85% 29.52 in 2.0 mi North 12.7 mph 27.6 mph 0.01 in Rain Light Freezing Rain
5:52 PM 32.0 °F 23.0 °F 28.0 °F 85% 29.52 in 2.0 mi NNE 11.5 mph 28.8 mph 0.02 in Snow Light Snow
6:19 PM 32.0 °F 24.8 °F 28.0 °F 85% 29.49 in 2.5 mi North 8.1 mph - 0.02 in Rain Light Freezing Rain
6:52 PM 32.0 °F 23.0 °F 28.0 °F 85% 29.46 in 2.5 mi North 11.5 mph 19.6 mph 0.02 in Rain Light Freezing Rain
7:09 PM 32.0 °F 24.2 °F 28.0 °F 85% 29.43 in 3.0 mi North 9.2 mph 19.6 mph 0.01 in Rain Light Freezing Rain
7:30 PM 32.0 °F 24.2 °F 28.9 °F 88% 29.42 in 3.0 mi North 9.2 mph 20.7 mph 0.01 in   Overcast
7:47 PM 32.0 °F 23.6 °F 28.4 °F 87% 29.39 in 2.5 mi North 10.4 mph 16.1 mph 0.01 in Rain Light Freezing Rain
7:52 PM 32.0 °F 23.0 °F 28.9 °F 88% 29.40 in 2.5 mi North 11.5 mph - 0.01 in Rain Light Freezing Rain
8:11 PM 32.0 °F 23.6 °F 28.9 °F 88% 29.36 in 2.0 mi North 10.4 mph 18.4 mph 0.01 in Snow Light Snow
8:48 PM 32.0 °F 24.2 °F 28.4 °F 87% 29.31 in 1.8 mi North 9.2 mph 19.6 mph 0.01 in Snow Light Snow
8:52 PM 32.0 °F 23.6 °F 28.9 °F 88% 29.32 in 2.0 mi North 10.4 mph 16.1 mph 0.01 in Snow Light Snow
9:23 PM 33.1 °F 24.9 °F 30.0 °F 89% 29.27 in 3.0 mi North 10.4 mph 20.7 mph 0.00 in   Overcast
9:30 PM 33.1 °F 26.1 °F 30.0 °F 89% 29.27 in 2.5 mi NNE 8.1 mph - 0.01 in Rain Light Freezing Rain
9:52 PM 33.1 °F 24.9 °F 30.0 °F 89% 29.24 in 2.5 mi North 10.4 mph - 0.01 in Rain Light Freezing Rain
10:06 PM 33.1 °F 24.4 °F 30.0 °F 89% 29.22 in 2.5 mi NNE 11.5 mph 18.4 mph 0.00 in Rain Light Rain
10:13 PM 34.0 °F 25.0 °F 30.0 °F 85% 29.21 in 2.5 mi NNE 12.7 mph 21.9 mph 0.00 in Rain Light Freezing Rain
10:47 PM 33.8 °F 23.9 °F 30.2 °F 87% 29.15 in 3.0 mi North 15.0 mph 24.2 mph 0.01 in Snow Light Snow
10:52 PM 34.0 °F 24.2 °F 30.0 °F 85% 29.16 in 3.0 mi NNE 15.0 mph 27.6 mph 0.01 in Snow Light Snow
11:30 PM 33.1 °F 24.9 °F 30.0 °F 89% 29.10 in 2.5 mi NNE 10.4 mph 23.0 mph 0.07 in Rain Heavy Rain
11:36 PM 34.0 °F 26.0 °F 30.0 °F 85% 29.09 in 3.0 mi NNE 10.4 mph 17.3 mph 0.09 in Rain Rain
11:52 PM 34.0 °F 26.0 °F 30.0 °F 85% 29.06 in 5.0 mi NNE 10.4 mph 18.4 mph 0.11 in Rain Light Rain